period_start,C,m1,H,J0,J1,J2,J3,J4,J5,JA,JB,JC,JD,JJ,JK,JN,#
2015-04-30 00:04:20,0.04,1.63,0.00,23.40,27.17,29.82,4.69,26.22,1012.71,2033.48,2737.69,2871.84,3123.00,349.59,345.54,10.86,0000 0000 0000 0000 000000
2015-04-30 00:09:21,0.02,1.63,0.00,23.34,27.17,29.82,4.78,26.15,1012.70,2033.57,2737.20,2871.64,3123.00,350.09,345.93,10.89,0000 0000 0000 0000 000000
2015-04-30 00:14:22,0.03,1.63,0.00,23.37,27.17,29.92,4.69,26.44,1012.70,2033.70,2737.08,2871.50,3123.00,349.55,345.60,10.92,0000 0000 0000 0000 000000
2015-04-30 00:19:23,0.03,1.63,0.00,23.39,27.17,29.86,4.75,26.35,1012.70,2033.65,2737.01,2871.11,3122.99,350.09,346.34,10.95,0000 0000 0000 0000 000000
2015-04-30 00:24:25,0.01,1.63,0.00,23.36,27.16,29.85,4.77,26.46,1012.71,2033.77,2737.00,2871.06,3122.96,350.39,346.43,10.98,0000 0000 0000 0000 000000
2015-04-30 00:29:26,0.01,1.63,0.00,23.41,27.15,29.86,4.85,26.43,1012.71,2033.75,2737.00,2871.01,3122.89,350.49,346.42,11.01,0000 0000 0000 0000 000000
2015-04-30 00:34:27,0.00,1.63,0.00,23.42,27.16,29.88,4.70,26.36,1012.71,2033.74,2736.94,2871.00,3122.63,349.58,345.48,11.04,0000 0000 0000 0000 000000
2015-04-30 00:39:28,-0.01,1.63,0.00,23.34,27.15,29.78,4.78,26.28,1012.71,2033.48,2736.21,2871.00,3122.10,350.19,345.87,11.07,0000 0000 0000 0000 000000
2015-04-30 00:44:29,0.06,1.63,0.00,23.39,27.15,29.86,4.66,26.32,1012.69,2033.67,2736.09,2870.99,3122.03,349.53,345.43,11.10,0000 0000 0000 0000 000000
2015-04-30 00:49:30,-0.02,1.63,0.00,23.44,27.15,29.86,4.70,26.48,1012.71,2033.66,2736.03,2870.97,3122.02,350.23,345.94,11.13,0000 0000 0000 0000 000000
2015-04-30 00:54:31,-0.01,1.63,0.00,23.35,27.15,29.76,4.82,26.52,1012.71,2033.48,2736.00,2870.82,3122.00,349.82,345.72,11.16,0000 0000 0000 0000 000000
2015-04-30 00:59:33,0.07,1.64,0.00,23.41,27.15,29.85,4.72,26.53,1012.71,2033.66,2736.00,2870.46,3122.00,349.46,345.37,11.18,0000 0000 0000 0000 000000
2015-04-30 01:04:34,0.00,1.64,0.00,23.45,27.15,29.87,4.73,26.36,1012.71,2033.74,2735.98,2870.27,3122.00,350.02,345.75,11.21,0000 0000 0000 0000 000000
2015-04-30 01:09:35,0.01,1.64,0.00,23.29,27.15,29.84,4.85,26.62,1012.71,2033.79,2735.93,2870.09,3121.97,350.51,346.47,11.24,0000 0000 0000 0000 000000
2015-04-30 01:14:37,-0.00,1.64,0.00,23.40,27.15,29.81,4.80,26.52,1012.71,2033.71,2735.47,2870.01,3121.79,350.01,345.91,11.27,0000 0000 0000 0000 000000
2015-04-30 01:19:38,0.06,1.64,0.00,23.44,27.15,29.85,4.71,26.59,1012.71,2033.83,2735.10,2870.01,3121.62,349.73,345.45,11.30,0000 0000 0000 0000 000000
2015-04-30 01:24:39,0.01,1.64,0.00,23.41,27.15,29.79,4.73,26.56,1012.71,2033.83,2735.00,2870.00,3121.14,349.67,345.42,11.33,0000 0000 0000 0000 000000
2015-04-30 01:29:41,-0.03,1.64,0.00,23.45,27.15,29.75,4.65,26.44,1012.75,2033.62,2734.98,2869.98,3121.01,349.97,345.88,11.36,0000 0000 0000 0000 000000
2015-04-30 01:34:42,0.01,1.64,0.00,23.41,27.15,29.70,4.77,26.38,1012.76,2033.54,2734.89,2869.96,3121.00,349.80,345.73,11.39,0000 0000 0000 0000 000000
2015-04-30 01:39:43,0.05,1.64,0.00,23.41,27.15,29.72,4.65,26.59,1012.82,2033.64,2734.29,2869.84,3121.00,350.14,346.13,11.42,0000 0000 0000 0000 000000
2015-04-30 01:44:45,0.04,1.64,0.00,23.50,27.15,29.81,4.74,26.46,1012.72,2033.79,2734.11,2869.71,3120.99,350.34,346.02,11.45,0000 0000 0000 0000 000000
2015-04-30 01:49:46,0.04,1.64,0.00,23.45,27.15,29.77,4.74,26.31,1012.78,2033.85,2734.01,2869.17,3120.97,350.14,346.09,11.48,0000 0000 0000 0000 000000
2015-04-30 01:54:48,-0.01,1.64,0.00,23.42,27.15,29.71,4.84,26.38,1012.75,2033.81,2733.99,2869.03,3120.81,350.58,346.05,11.51,0000 0000 0000 0000 000000
2015-04-30 01:59:49,0.02,1.64,0.00,23.54,27.15,29.78,4.75,26.46,1012.72,2033.82,2733.97,2869.00,3120.34,349.48,345.22,11.54,0000 0000 0000 0000 000000
2015-04-30 02:04:50,0.03,1.64,0.00,23.55,27.15,29.82,4.70,26.43,1012.74,2033.88,2733.62,2869.00,3120.04,349.81,345.52,11.56,0000 0000 0000 0000 000000
2015-04-30 02:09:51,0.02,1.64,0.00,23.35,27.15,29.85,4.73,26.44,1012.74,2033.90,2733.08,2868.99,3120.01,349.90,345.93,11.59,0000 0000 0000 0000 000000
2015-04-30 02:14:52,0.00,1.64,0.00,23.16,27.14,29.89,4.77,26.36,1012.75,2033.83,2733.00,2868.94,3120.00,349.92,346.31,11.62,0000 0000 0000 0000 000000
2015-04-30 02:19:54,0.03,1.64,0.00,23.10,27.12,29.90,4.77,26.41,1012.76,2033.81,2732.92,2868.46,3119.97,349.72,345.97,11.65,0000 0000 0000 0000 000000
2015-04-30 02:24:55,0.04,1.65,0.00,23.02,27.12,29.89,4.86,26.40,1012.73,2033.87,2732.53,2868.16,3119.93,350.63,346.95,11.68,0000 0000 0000 0000 000000
2015-04-30 02:29:56,0.04,1.65,0.00,23.17,27.12,29.85,4.72,26.38,1012.73,2033.97,2732.14,2868.05,3119.65,350.04,346.20,11.71,0000 0000 0000 0000 000000
2015-04-30 02:34:58,0.01,1.65,0.00,23.36,27.12,29.77,4.79,26.54,1012.82,2033.94,2732.03,2868.01,3119.15,350.30,346.34,11.74,0000 0000 0000 0000 000000
2015-04-30 02:39:59,-0.00,1.65,0.00,23.50,27.12,29.80,4.77,26.50,1013.10,2033.90,2732.00,2868.00,3119.01,349.68,345.62,11.77,0000 0000 0000 0000 000000
2015-04-30 02:45:01,-0.01,1.65,0.00,23.46,27.12,29.89,4.68,26.53,1013.14,2033.88,2732.00,2867.99,3119.00,349.41,345.49,11.80,0000 0000 0000 0000 000000
2015-04-30 02:50:02,0.01,1.65,0.00,23.56,27.12,29.88,4.83,26.59,1013.09,2033.86,2731.84,2867.96,3118.99,350.41,346.08,11.83,0000 0000 0000 0000 000000
2015-04-30 02:55:03,0.04,1.65,0.00,23.61,27.14,29.89,4.78,26.48,1012.93,2033.91,2731.27,2867.76,3118.95,349.88,345.50,11.86,0000 0000 0000 0000 000000
2015-04-30 03:00:05,0.03,1.65,0.00,23.53,27.15,29.88,4.80,26.58,1012.81,2033.90,2731.02,2867.29,3118.75,350.29,346.09,11.89,0000 0000 0000 0000 000000
2015-04-30 03:05:06,0.02,1.65,0.00,23.52,27.15,29.86,4.70,26.52,1012.97,2033.93,2731.00,2867.04,3118.28,349.81,345.50,11.92,0000 0000 0000 0000 000000
2015-04-30 03:10:07,0.01,1.65,0.00,23.65,27.15,29.83,4.73,26.48,1013.18,2033.89,2730.97,2867.01,3118.04,349.70,345.34,11.95,0000 0000 0000 0000 000000
2015-04-30 03:15:08,0.02,1.65,0.00,23.60,27.15,29.86,4.90,26.51,1013.19,2033.86,2730.60,2867.00,3118.00,350.45,346.45,11.97,0000 0000 0000 0000 000000
2015-04-30 03:20:09,0.01,1.65,0.00,23.51,27.15,29.84,4.71,26.52,1013.20,2033.89,2730.07,2866.98,3118.00,349.93,345.85,12.00,0000 0000 0000 0000 000000
2015-04-30 03:25:10,-0.00,1.65,0.00,23.37,27.15,29.93,4.76,26.51,1013.20,2033.81,2730.00,2866.86,3117.96,350.09,346.01,12.03,0000 0000 0000 0000 000000
2015-04-30 03:30:11,0.04,1.65,0.00,23.31,27.15,29.93,4.72,26.46,1013.19,2033.73,2729.87,2866.29,3117.37,350.14,346.35,12.06,0000 0000 0000 0000 000000
2015-04-30 03:35:13,0.02,1.65,0.00,23.23,27.15,29.97,4.78,26.58,1013.17,2033.64,2729.21,2866.04,3117.04,350.04,345.79,12.09,0000 0000 0000 0000 000000
2015-04-30 03:40:14,0.01,1.65,0.00,23.17,27.15,29.99,4.75,26.43,1013.19,2033.62,2729.01,2866.00,3117.01,350.10,346.29,12.12,0000 0000 0000 0000 000000
2015-04-30 03:45:15,0.04,1.66,0.00,23.12,27.15,29.94,4.67,26.44,1013.20,2033.84,2729.00,2866.00,3117.00,349.17,345.51,12.15,0000 0000 0000 0000 000000
2015-04-30 03:50:17,0.01,1.66,0.00,23.21,27.14,29.92,4.68,26.38,1013.19,2033.91,2728.99,2865.99,3116.99,349.73,346.13,12.18,0000 0000 0000 0000 000000
2015-04-30 03:55:18,0.00,1.66,0.00,23.43,27.14,29.87,4.74,26.41,1013.18,2033.93,2728.96,2865.98,3116.96,349.95,345.84,12.21,0000 0000 0000 0000 000000
2015-04-30 04:00:19,0.06,1.66,0.00,23.59,27.15,29.86,4.61,26.45,1013.18,2033.95,2728.40,2865.78,3116.60,349.58,345.40,12.24,0000 0000 0000 0000 000000
2015-04-30 04:05:21,0.05,1.66,0.00,23.60,27.15,29.93,4.74,26.61,1013.17,2033.93,2728.01,2865.13,3116.04,350.02,345.95,12.27,0000 0000 0000 0000 000000
2015-04-30 04:10:22,-0.01,1.66,0.00,23.65,27.15,29.91,4.75,26.44,1013.12,2033.89,2727.99,2865.01,3116.00,349.50,345.32,12.30,0000 0000 0000 0000 000000
2015-04-30 04:15:23,0.00,1.66,0.00,23.60,27.17,29.94,4.73,26.56,1013.03,2033.82,2727.86,2865.00,3115.98,349.68,345.46,12.33,0000 0000 0000 0000 000000
2015-04-30 04:20:24,0.01,1.66,0.00,23.42,27.17,30.01,4.79,26.56,1013.08,2033.80,2727.21,2864.99,3115.93,350.05,346.14,12.36,0000 0000 0000 0000 000000
2015-04-30 04:25:25,0.04,1.66,0.00,23.38,27.17,30.07,4.85,26.69,1013.01,2033.85,2727.01,2864.96,3115.38,350.36,346.32,12.38,0000 0000 0000 0000 000000
2015-04-30 04:30:26,0.01,1.66,0.00,23.36,27.17,30.05,4.84,26.48,1012.79,2033.74,2726.98,2864.68,3115.02,349.65,345.57,12.41,0000 0000 0000 0000 000000
2015-04-30 04:35:28,0.06,1.66,0.00,23.30,27.17,30.05,4.78,26.46,1012.82,2033.79,2726.68,2864.17,3115.00,349.93,345.92,12.44,0000 0000 0000 0000 000000
2015-04-30 04:40:29,-0.01,1.66,0.00,23.27,27.17,30.05,4.79,26.50,1012.76,2033.61,2726.04,2864.01,3114.99,350.08,346.21,12.47,0000 0000 0000 0000 000000
2015-04-30 04:45:31,-0.01,1.66,0.00,23.25,27.17,30.03,4.73,26.48,1012.76,2033.64,2726.00,2864.00,3114.93,349.72,345.80,12.50,0000 0000 0000 0000 000000
2015-04-30 04:50:32,0.04,1.66,0.00,23.21,27.17,30.06,4.70,26.42,1012.83,2033.73,2725.96,2863.98,3114.59,349.70,345.97,12.53,0000 0000 0000 0000 000000
2015-04-30 04:55:33,0.03,1.66,0.00,23.20,27.16,30.03,4.72,26.51,1012.85,2033.74,2725.66,2863.95,3114.10,350.13,346.43,12.56,0000 0000 0000 0000 000000
2015-04-30 05:00:34,0.08,1.67,0.00,23.19,27.15,30.03,4.81,26.57,1012.83,2033.85,2725.09,2863.45,3114.00,350.51,346.79,12.59,0000 0000 0000 0000 000000
2015-04-30 05:05:36,0.01,1.67,0.00,23.18,27.15,30.05,4.67,26.51,1012.82,2033.90,2725.00,2863.08,3114.00,349.48,345.68,12.62,0000 0000 0000 0000 000000
2015-04-30 05:10:37,0.01,1.67,0.00,23.18,27.15,30.04,4.80,26.63,1012.81,2033.96,2724.99,2863.01,3113.97,350.20,346.39,12.65,0000 0000 0000 0000 000000
2015-04-30 05:15:39,0.00,1.67,0.00,23.18,27.15,29.99,4.81,26.50,1012.74,2033.94,2724.79,2863.00,3113.79,350.08,346.33,12.68,0000 0000 0000 0000 000000
2015-04-30 05:20:40,0.05,1.67,0.00,23.17,27.15,30.04,4.76,26.57,1012.74,2033.94,2724.14,2862.98,3113.20,349.72,345.94,12.71,0000 0000 0000 0000 000000
2015-04-30 05:25:41,0.01,1.67,0.00,23.18,27.15,30.04,4.74,26.54,1012.75,2033.94,2724.00,2862.95,3113.02,349.78,346.04,12.74,0000 0000 0000 0000 000000
2015-04-30 05:30:42,0.04,1.67,0.00,23.21,27.15,30.03,4.72,26.58,1012.78,2033.91,2723.97,2862.41,3113.00,349.62,345.83,12.77,0000 0000 0000 0000 000000
2015-04-30 05:35:44,0.04,1.67,0.00,23.20,27.14,30.01,4.74,26.62,1012.76,2033.92,2723.47,2862.07,3112.98,349.87,345.86,12.79,0000 0000 0000 0000 000000
2015-04-30 05:40:45,0.01,1.67,0.00,23.21,27.14,30.03,4.72,26.59,1012.77,2033.94,2723.04,2862.01,3112.88,349.68,345.78,12.82,0000 0000 0000 0000 000000
2015-04-30 05:45:46,0.01,1.67,0.00,23.22,27.13,30.05,4.77,26.52,1012.79,2033.95,2723.00,2862.00,3112.49,350.17,346.20,12.85,0000 0000 0000 0000 000000
2015-04-30 05:50:51,0.01,1.67,0.00,23.22,27.13,30.03,4.75,26.62,1012.81,2033.97,2722.99,2862.00,3112.07,349.74,346.00,12.88,0000 0000 0000 0000 000000
2015-04-30 05:55:53,0.01,1.67,0.00,23.22,27.12,30.02,4.72,26.49,1013.00,2033.96,2722.75,2861.97,3112.01,350.01,346.20,12.91,0000 0000 0000 0000 000000
2015-04-30 06:00:54,0.02,1.67,0.00,23.21,27.12,30.01,4.75,26.49,1013.12,2033.96,2722.14,2861.82,3112.00,349.83,346.01,12.94,0000 0000 0000 0000 000000
2015-04-30 06:05:55,0.02,1.67,0.00,23.20,27.12,30.02,4.76,26.51,1013.19,2033.98,2722.00,2861.56,3111.99,349.93,346.28,12.97,0000 0000 0000 0000 000000
2015-04-30 06:10:57,0.02,1.68,0.00,23.19,27.12,30.02,4.85,26.53,1013.20,2033.99,2722.00,2861.13,3111.96,349.89,346.23,13.00,0000 0000 0000 0000 000000
2015-04-30 06:15:57,0.01,1.68,0.00,23.22,27.12,30.03,4.81,26.57,1013.20,2033.98,2721.95,2861.03,3111.87,349.99,346.41,13.03,0000 0000 0000 0000 000000
2015-04-30 06:20:58,0.03,1.68,0.00,23.20,27.12,30.04,4.67,26.47,1013.20,2033.99,2721.50,2861.01,3111.51,349.45,345.83,13.06,0000 0000 0000 0000 000000
2015-04-30 06:26:00,0.02,1.68,0.00,23.19,27.12,30.00,4.84,26.57,1013.20,2033.99,2721.03,2861.00,3111.05,349.81,346.18,13.09,0000 0000 0000 0000 000000
2015-04-30 06:31:01,0.00,1.68,0.00,23.22,27.12,30.00,4.82,26.66,1013.20,2033.99,2721.00,2860.99,3111.00,349.96,346.18,13.12,0000 0000 0000 0000 000000
2015-04-30 06:36:02,0.02,1.68,0.00,23.22,27.12,30.00,4.79,26.58,1013.20,2033.99,2720.92,2860.75,3110.99,350.17,346.39,13.15,0000 0000 0000 0000 000000
2015-04-30 06:41:03,0.04,1.68,0.00,23.22,27.11,30.01,4.83,26.48,1013.20,2033.98,2720.28,2860.12,3110.93,350.19,346.40,13.18,0000 0000 0000 0000 000000
2015-04-30 06:46:05,0.02,1.68,0.00,23.23,27.12,29.99,4.75,26.44,1013.18,2033.99,2720.05,2860.08,3110.75,349.83,346.19,13.20,0000 0000 0000 0000 000000
2015-04-30 06:51:06,0.02,1.68,0.00,23.24,27.11,29.99,4.71,26.40,1013.20,2033.98,2720.00,2860.00,3110.13,349.63,345.74,13.23,0000 0000 0000 0000 000000
2015-04-30 06:56:07,-0.00,1.68,0.00,23.24,27.11,30.00,4.79,26.47,1013.20,2033.98,2719.99,2860.00,3110.02,349.68,346.06,13.26,0000 0000 0000 0000 000000
2015-04-30 07:01:08,0.01,1.68,0.00,23.26,27.11,29.99,4.77,26.43,1013.20,2033.98,2719.87,2859.99,3110.00,350.13,346.30,13.29,0000 0000 0000 0000 000000
2015-04-30 07:06:09,0.02,1.68,0.00,23.27,27.11,30.00,4.67,26.32,1013.20,2033.98,2719.16,2859.94,3109.99,349.42,345.78,13.32,0000 0000 0000 0000 000000
2015-04-30 07:11:10,0.02,1.68,0.00,23.27,27.11,30.01,4.82,26.51,1013.20,2033.99,2719.01,2859.74,3109.96,350.66,346.81,13.35,0000 0000 0000 0000 000000
2015-04-30 07:16:11,0.04,1.68,0.00,23.26,27.11,30.02,4.83,26.57,1013.20,2033.99,2718.99,2859.25,3109.62,350.45,346.90,13.38,0000 0000 0000 0000 000000
2015-04-30 07:21:13,0.02,1.68,0.00,23.27,27.11,30.02,4.73,26.48,1013.21,2033.99,2718.85,2859.05,3109.13,349.83,346.04,13.41,0000 0000 0000 0000 000000
2015-04-30 07:26:14,0.02,1.69,0.00,23.26,27.11,30.01,4.82,26.51,1013.23,2033.99,2718.27,2859.00,3109.01,350.32,346.54,13.44,0000 0000 0000 0000 000000
2015-04-30 07:31:15,0.00,1.69,0.00,23.25,27.11,30.01,4.76,26.47,1013.26,2033.99,2718.02,2859.00,3109.00,350.16,346.43,13.47,0000 0000 0000 0000 000000
2015-04-30 07:36:17,0.00,1.69,0.00,23.26,27.11,30.04,4.82,26.47,1013.33,2033.99,2717.99,2858.98,3108.98,350.40,346.57,13.50,0000 0000 0000 0000 000000
2015-04-30 07:41:18,0.00,1.69,0.00,23.25,27.11,30.02,4.82,26.53,1013.30,2033.99,2717.91,2858.91,3108.95,349.98,346.25,13.53,0000 0000 0000 0000 000000
2015-04-30 07:46:19,0.05,1.69,0.00,23.25,27.11,30.02,4.78,26.54,1013.35,2033.99,2717.49,2858.64,3108.61,350.03,346.31,13.56,0000 0000 0000 0000 000000
2015-04-30 07:51:21,0.04,1.69,0.00,23.25,27.12,30.03,4.75,26.41,1013.33,2033.99,2717.08,2858.22,3108.15,350.19,346.42,13.59,0000 0000 0000 0000 000000
2015-04-30 07:56:22,0.00,1.69,0.00,23.25,27.12,30.03,4.75,26.42,1013.24,2033.99,2717.00,2858.02,3108.02,349.95,346.24,13.61,0000 0000 0000 0000 000000
2015-04-30 08:01:24,0.00,1.69,0.00,23.24,27.11,30.02,4.74,26.39,1013.42,2033.99,2716.98,2858.00,3108.00,349.90,346.21,13.64,0000 0000 0000 0000 000000
2015-04-30 08:06:25,0.02,1.69,0.00,23.24,27.12,30.02,4.81,26.59,1013.64,2033.99,2716.62,2858.00,3107.98,350.36,346.56,13.67,0000 0000 0000 0000 000000
2015-04-30 08:11:26,0.02,1.69,0.00,23.24,27.11,30.02,4.77,26.59,1013.66,2033.99,2716.07,2857.94,3107.80,349.24,345.72,13.70,0000 0000 0000 0000 000000
2015-04-30 08:16:27,0.04,1.69,0.00,23.22,27.11,30.03,4.86,26.51,1013.68,2033.99,2716.00,2857.66,3107.15,350.27,346.71,13.73,0000 0000 0000 0000 000000
2015-04-30 08:21:28,0.02,1.69,0.00,23.22,27.11,30.02,4.82,26.43,1013.68,2033.99,2715.96,2857.12,3107.01,350.52,346.84,13.76,0000 0000 0000 0000 000000
2015-04-30 08:26:29,0.03,1.69,0.00,23.22,27.11,30.02,4.80,26.50,1013.68,2033.99,2715.40,2857.00,3107.00,349.54,346.09,13.79,0000 0000 0000 0000 000000
2015-04-30 08:31:31,0.00,1.69,0.00,23.20,27.11,30.03,4.81,26.64,1013.69,2033.99,2715.03,2857.00,3106.99,350.55,347.14,13.82,0000 0000 0000 0000 000000
2015-04-30 08:36:32,0.00,1.69,0.00,23.19,27.10,30.04,4.73,26.61,1013.69,2033.99,2715.00,2857.00,3106.90,349.77,346.18,13.85,0000 0000 0000 0000 000000
2015-04-30 08:41:33,0.01,1.69,0.00,23.19,27.10,30.04,4.78,26.48,1013.68,2033.99,2714.96,2856.98,3106.52,350.22,346.63,13.88,0000 0000 0000 0000 000000
2015-04-30 08:46:34,0.02,1.69,0.00,23.18,27.10,30.04,4.82,26.49,1013.68,2033.99,2714.74,2856.91,3106.11,350.00,346.58,13.91,0000 0000 0000 0000 000000
2015-04-30 08:51:36,0.06,1.70,0.00,23.17,27.10,30.03,4.75,26.40,1013.69,2033.99,2714.05,2856.34,3106.00,349.77,346.56,13.94,0000 0000 0000 0000 000000
2015-04-30 08:56:36,0.01,1.70,0.00,23.19,27.10,30.03,4.67,26.48,1013.69,2033.99,2714.00,2856.03,3106.00,349.72,346.27,13.97,0000 0000 0000 0000 000000
2015-04-30 09:01:37,-0.00,1.70,0.00,23.17,27.10,30.04,4.78,26.52,1013.69,2033.99,2713.96,2856.01,3105.97,350.23,346.62,14.00,0000 0000 0000 0000 000000
2015-04-30 09:06:39,0.04,1.70,0.00,23.14,27.10,30.03,4.84,26.51,1013.69,2033.98,2713.43,2856.00,3105.67,350.06,346.49,14.02,0000 0000 0000 0000 000000
2015-04-30 09:11:40,0.02,1.70,0.00,23.14,27.10,30.02,4.86,26.57,1013.69,2033.99,2713.06,2855.98,3105.34,350.71,347.22,14.05,0000 0000 0000 0000 000000
2015-04-30 09:16:41,0.02,1.70,0.00,23.13,27.10,30.01,4.82,26.56,1013.69,2033.99,2712.99,2855.81,3105.01,350.31,346.67,14.08,0000 0000 0000 0000 000000
2015-04-30 09:21:42,0.03,1.70,0.00,23.12,27.10,30.04,4.70,26.47,1013.69,2033.99,2712.88,2855.36,3105.00,349.85,346.32,14.11,0000 0000 0000 0000 000000
2015-04-30 09:26:44,0.04,1.70,0.00,23.10,27.10,30.02,4.69,26.48,1013.69,2033.99,2712.24,2855.06,3104.99,349.33,345.92,14.14,0000 0000 0000 0000 000000
2015-04-30 09:31:45,0.00,1.70,0.00,23.09,27.10,30.01,4.75,26.45,1013.69,2033.99,2712.01,2855.00,3104.90,349.98,346.28,14.17,0000 0000 0000 0000 000000
2015-04-30 09:36:46,0.01,1.70,0.00,23.07,27.10,30.02,4.70,26.52,1013.69,2034.00,2711.97,2855.00,3104.54,350.17,346.92,14.20,0000 0000 0000 0000 000000
2015-04-30 09:41:48,0.01,1.70,0.00,23.07,27.10,30.01,4.81,26.52,1013.69,2034.01,2711.84,2854.98,3104.04,349.74,346.31,14.23,0000 0000 0000 0000 000000
2015-04-30 09:46:49,0.03,1.70,0.00,23.07,27.09,30.02,4.73,26.42,1013.69,2034.00,2711.23,2854.90,3104.00,349.72,346.32,14.26,0000 0000 0000 0000 000000
2015-04-30 09:51:50,0.03,1.70,0.00,23.05,27.09,30.00,4.82,26.57,1013.69,2034.00,2711.00,2854.46,3103.99,349.56,346.25,14.29,0000 0000 0000 0000 000000
2015-04-30 09:56:52,0.02,1.70,0.00,23.04,27.08,30.01,4.80,26.57,1013.69,2034.01,2710.99,2854.06,3103.93,349.90,346.50,14.32,0000 0000 0000 0000 000000
2015-04-30 10:01:53,0.04,1.71,0.00,23.03,27.07,30.01,4.85,26.62,1013.69,2034.00,2710.63,2854.00,3103.51,350.00,346.59,14.35,0000 0000 0000 0000 000000
2015-04-30 10:06:55,0.01,1.71,0.00,23.01,27.07,30.01,4.80,26.59,1013.69,2034.00,2710.05,2854.00,3103.09,350.25,346.92,14.38,0000 0000 0000 0000 000000
2015-04-30 10:11:56,0.00,1.71,0.00,23.00,27.07,30.01,4.74,26.51,1013.70,2034.00,2710.00,2853.98,3103.00,349.59,346.19,14.40,0000 0000 0000 0000 000000
2015-04-30 10:16:57,0.01,1.71,0.00,23.00,27.07,30.01,4.81,26.51,1013.69,2034.01,2709.95,2853.86,3102.99,350.12,346.87,14.43,0000 0000 0000 0000 000000
2015-04-30 10:21:58,0.05,1.71,0.00,22.98,27.07,30.00,4.81,26.35,1013.70,2034.01,2709.45,2853.30,3102.95,350.30,347.01,14.46,0000 0000 0000 0000 000000
2015-04-30 10:26:59,0.04,1.71,0.00,22.97,27.07,29.98,4.80,26.57,1013.73,2034.00,2709.04,2853.05,3102.55,350.05,346.92,14.49,0000 0000 0000 0000 000000
2015-04-30 10:32:00,0.02,1.71,0.00,22.95,27.07,30.01,4.76,26.48,1013.75,2034.03,2708.99,2853.00,3102.07,350.39,347.15,14.52,0000 0000 0000 0000 000000
2015-04-30 10:37:02,0.01,1.71,0.00,22.94,27.05,29.97,4.78,26.61,1013.80,2034.03,2708.66,2852.99,3102.00,349.84,346.70,14.55,0000 0000 0000 0000 000000
2015-04-30 10:42:03,0.02,1.71,0.00,22.94,27.05,29.99,4.80,26.41,1013.90,2034.05,2708.05,2852.96,3102.00,349.70,346.54,14.58,0000 0000 0000 0000 000000
2015-04-30 10:47:04,0.03,1.71,0.00,23.03,27.05,29.93,4.72,26.48,1013.80,2034.10,2708.00,2852.78,3101.98,349.61,346.15,14.61,0000 0000 0000 0000 000000
2015-04-30 10:52:05,0.05,1.71,0.00,23.15,27.05,29.89,4.71,26.50,1013.78,2034.09,2707.93,2852.10,3101.57,349.85,346.62,14.64,0000 0000 0000 0000 000000
2015-04-30 10:57:06,0.04,1.71,0.00,23.34,27.07,29.91,4.75,26.52,1013.75,2034.08,2707.39,2852.00,3101.05,349.64,345.93,14.67,0000 0000 0000 0000 000000
2015-04-30 11:02:08,0.01,1.72,0.00,23.34,27.07,29.91,4.75,26.47,1013.73,2034.16,2707.01,2851.99,3101.00,350.04,346.26,14.70,0000 0000 0000 0000 000000
2015-04-30 11:07:09,0.02,1.72,0.00,23.17,27.07,29.96,4.75,26.48,1013.73,2034.07,2706.86,2851.61,3100.92,349.60,346.20,14.73,0000 0000 0000 0000 000000
2015-04-30 11:12:10,0.07,1.72,0.00,23.17,27.09,29.99,4.73,26.43,1013.72,2034.07,2706.18,2851.07,3100.36,350.01,346.52,14.76,0000 0000 0000 0000 000000
2015-04-30 11:17:11,-0.00,1.72,0.00,23.13,27.09,30.02,4.73,26.37,1013.72,2034.04,2706.00,2851.00,3100.00,350.13,346.64,14.79,0000 0000 0000 0000 000000
2015-04-30 11:22:12,0.00,1.72,0.00,23.05,27.09,30.04,4.81,26.39,1013.73,2034.03,2705.98,2850.99,3100.00,350.21,346.99,14.81,0000 0000 0000 0000 000000
2015-04-30 11:27:14,0.05,1.72,0.00,23.00,27.09,30.05,4.77,26.48,1013.71,2034.06,2705.42,2850.87,3099.90,349.45,346.15,14.84,0000 0000 0000 0000 000000
2015-04-30 11:32:15,0.05,1.72,0.00,22.96,27.09,30.00,4.72,26.38,1013.70,2034.06,2705.02,2850.32,3099.37,349.60,346.49,14.87,0000 0000 0000 0000 000000
2015-04-30 11:37:16,0.01,1.72,0.00,22.91,27.08,30.02,4.76,26.50,1013.71,2034.04,2704.91,2850.02,3099.02,349.89,346.52,14.90,0000 0000 0000 0000 000000
2015-04-30 11:42:17,0.02,1.72,0.00,23.03,27.07,29.99,4.77,26.39,1013.71,2034.04,2704.60,2850.00,3099.00,349.93,346.85,14.93,0000 0000 0000 0000 000000
2015-04-30 11:47:18,0.01,1.72,0.00,23.20,27.08,29.89,4.82,26.45,1013.70,2034.04,2704.09,2849.99,3098.96,350.37,346.84,14.96,0000 0000 0000 0000 000000
2015-04-30 11:52:20,0.02,1.72,0.00,23.32,27.10,29.91,4.74,26.48,1013.70,2034.06,2704.00,2849.82,3098.65,349.86,346.21,14.99,0000 0000 0000 0000 000000
2015-04-30 11:57:21,0.05,1.73,0.00,23.30,27.10,29.92,4.72,26.42,1013.70,2034.03,2703.98,2849.21,3098.10,349.95,346.19,15.02,0000 0000 0000 0000 000000
2015-04-30 12:02:22,0.03,1.73,0.00,23.26,27.10,29.94,4.81,26.40,1013.70,2034.03,2703.34,2849.02,3098.00,349.91,346.31,15.05,0000 0000 0000 0000 000000
2015-04-30 12:07:24,0.00,1.73,0.00,23.08,27.11,30.00,4.76,26.46,1013.71,2034.02,2703.03,2849.00,3097.98,350.07,346.63,15.08,0000 0000 0000 0000 000000
2015-04-30 12:12:25,0.02,1.73,0.00,23.08,27.12,30.04,4.76,26.43,1013.71,2034.03,2702.98,2848.98,3097.59,349.64,346.16,15.11,0000 0000 0000 0000 000000
2015-04-30 12:17:26,0.02,1.73,0.00,23.02,27.10,30.02,4.77,26.38,1013.71,2034.02,2702.84,2848.86,3097.12,349.94,346.85,15.14,0000 0000 0000 0000 000000
2015-04-30 12:22:27,0.06,1.73,0.00,22.92,27.10,30.01,4.69,26.39,1013.71,2034.03,2702.13,2848.35,3097.01,349.48,346.27,15.17,0000 0000 0000 0000 000000
2015-04-30 12:27:29,0.00,1.73,0.00,22.90,27.10,29.92,4.82,26.39,1013.70,2034.03,2702.00,2848.04,3097.00,350.50,347.13,15.20,0000 0000 0000 0000 000000
2015-04-30 12:32:30,0.02,1.73,0.00,23.00,27.10,29.94,4.78,26.43,1013.70,2034.07,2701.99,2848.01,3096.96,349.83,346.49,15.22,0000 0000 0000 0000 000000
2015-04-30 12:37:31,0.03,1.73,0.00,23.11,27.10,29.86,4.74,26.63,1013.70,2034.08,2701.52,2847.99,3096.63,349.81,346.44,15.25,0000 0000 0000 0000 000000
2015-04-30 12:42:32,0.02,1.73,0.00,23.26,27.10,29.89,4.73,26.41,1013.70,2034.07,2701.04,2847.94,3096.07,349.86,346.04,15.28,0000 0000 0000 0000 000000
2015-04-30 12:47:33,0.02,1.73,0.00,23.18,27.10,29.93,4.80,26.40,1013.70,2034.04,2701.00,2847.45,3096.00,350.19,346.82,15.31,0000 0000 0000 0000 000000
2015-04-30 12:52:35,0.02,1.73,0.00,23.02,27.11,29.96,4.76,26.43,1013.71,2034.04,2700.77,2847.04,3095.98,349.44,346.14,15.34,0000 0000 0000 0000 000000
2015-04-30 12:57:36,0.02,1.73,0.00,22.98,27.10,29.99,4.86,26.37,1013.72,2034.05,2700.15,2847.01,3095.95,350.31,346.92,15.37,0000 0000 0000 0000 000000
2015-04-30 13:02:37,0.02,1.74,0.00,22.91,27.10,29.97,4.71,26.34,1013.70,2034.07,2700.01,2847.00,3095.65,350.11,346.86,15.40,0000 0000 0000 0000 000000